FHV1116 KBOS-KBKL

Flight info

Callsign FHV1116
Flight time 1h 23m
Altitude 38000
Route REVSS6 REVSS CTR HNK PSB THOME TRYBE4
Aircraft C750/M-SBDE3FGHRWXY/S

Departure

Time 2026-05-09 01:41
Airport Boston Logan International Airport (KBOS)

Arrival

Time 2026-05-09 03:05
Airport Burke Lakefront Airport (KBKL)
Time Latitude Longitude Altitude Speed Heading
2026-05-09 01:22 42.37404 -71.02067 23 ft 0 kts 314°
2026-05-09 01:32 42.37406 -71.02069 22 ft 0 kts 314°
2026-05-09 01:34 42.37398 -71.02078 23 ft 3 kts 171°
2026-05-09 01:35 42.37392 -71.02005 23 ft 13 kts 109°
2026-05-09 01:35 42.37335 -71.01875 24 ft 20 kts 136°
2026-05-09 01:35 42.37218 -71.01718 22 ft 24 kts 136°
2026-05-09 01:35 42.37107 -71.01569 22 ft 25 kts 136°
2026-05-09 01:36 42.36999 -71.01423 22 ft 20 kts 135°
2026-05-09 01:36 42.36888 -71.01276 22 ft 25 kts 135°
2026-05-09 01:36 42.36744 -71.01151 22 ft 23 kts 181°
2026-05-09 01:36 42.36588 -71.01211 22 ft 25 kts 200°
2026-05-09 01:37 42.36455 -71.01272 22 ft 17 kts 201°
2026-05-09 01:37 42.36358 -71.01306 22 ft 10 kts 174°
2026-05-09 01:37 42.36305 -71.01240 23 ft 15 kts 120°
2026-05-09 01:37 42.36227 -71.01033 22 ft 22 kts 114°
2026-05-09 01:38 42.36168 -71.00872 22 ft 20 kts 116°
2026-05-09 01:38 42.36104 -71.00653 23 ft 30 kts 109°
2026-05-09 01:38 42.36044 -71.00430 22 ft 18 kts 116°
2026-05-09 01:38 42.36004 -71.00258 22 ft 22 kts 110°
2026-05-09 01:39 42.35938 -71.00060 22 ft 19 kts 126°
2026-05-09 01:39 42.35851 -70.99942 23 ft 19 kts 134°
2026-05-09 01:39 42.35731 -70.99781 22 ft 29 kts 135°
2026-05-09 01:39 42.35618 -70.99628 22 ft 16 kts 134°
2026-05-09 01:40 42.35559 -70.99549 22 ft 10 kts 135°
2026-05-09 01:40 42.35502 -70.99457 22 ft 15 kts 112°
2026-05-09 01:40 42.35503 -70.99352 24 ft 11 kts 79°
2026-05-09 01:40 42.35576 -70.99326 22 ft 18 kts 318°
2026-05-09 01:41 42.35814 -70.99635 23 ft 94 kts 314°
2026-05-09 01:41 42.36447 -71.00479 168 ft 141 kts 313°
2026-05-09 01:41 42.37155 -71.01434 786 ft 149 kts 313°
2026-05-09 01:41 42.37943 -71.02402 1335 ft 145 kts 317°
2026-05-09 01:42 42.38576 -71.03285 1424 ft 125 kts 306°
2026-05-09 01:42 42.39009 -71.04307 1257 ft 124 kts 296°
2026-05-09 01:42 42.39435 -71.05427 1288 ft 151 kts 298°
2026-05-09 01:42 42.39956 -71.06775 1732 ft 171 kts 297°
2026-05-09 01:43 42.40581 -71.08285 2136 ft 198 kts 299°
2026-05-09 01:43 42.41200 -71.10087 2483 ft 228 kts 281°
2026-05-09 01:43 42.41131 -71.12348 3010 ft 246 kts 264°
2026-05-09 01:43 42.40935 -71.14621 4168 ft 243 kts 265°
2026-05-09 01:44 42.40786 -71.16908 5174 ft 245 kts 266°
2026-05-09 01:44 42.40639 -71.19210 6197 ft 247 kts 265°
2026-05-09 01:44 42.40479 -71.21530 7214 ft 248 kts 265°
2026-05-09 01:44 42.40315 -71.23869 8252 ft 251 kts 265°
2026-05-09 01:45 42.40152 -71.26220 9340 ft 252 kts 265°
2026-05-09 01:45 42.39988 -71.28594 10253 ft 256 kts 266°
2026-05-09 01:45 42.39814 -71.31114 10563 ft 281 kts 266°
2026-05-09 01:45 42.39624 -71.33859 10663 ft 308 kts 266°
2026-05-09 01:46 42.39319 -71.36800 11143 ft 318 kts 262°
2026-05-09 01:46 42.38999 -71.39750 12013 ft 317 kts 264°
2026-05-09 01:46 42.38706 -71.42727 12739 ft 321 kts 264°
2026-05-09 01:46 42.38390 -71.45725 13499 ft 324 kts 264°
2026-05-09 01:47 42.38056 -71.48754 14162 ft 327 kts 264°
2026-05-09 01:47 42.37725 -71.51807 14853 ft 329 kts 264°
2026-05-09 01:47 42.37399 -71.54870 15557 ft 330 kts 264°
2026-05-09 01:47 42.37067 -71.57951 16269 ft 332 kts 264°
2026-05-09 01:48 42.36730 -71.61048 16985 ft 334 kts 264°
2026-05-09 01:48 42.36391 -71.64160 17726 ft 336 kts 264°
2026-05-09 01:48 42.36050 -71.67299 18428 ft 339 kts 265°
2026-05-09 01:48 42.35706 -71.70455 19100 ft 341 kts 265°
2026-05-09 01:49 42.35357 -71.73636 19755 ft 344 kts 265°
2026-05-09 01:49 42.35005 -71.76848 20425 ft 347 kts 265°
2026-05-09 01:49 42.34649 -71.80084 21071 ft 349 kts 265°
2026-05-09 01:49 42.34443 -71.83355 21671 ft 351 kts 270°
2026-05-09 01:50 42.34323 -71.86622 22315 ft 354 kts 269°
2026-05-09 01:50 42.34165 -71.89957 22944 ft 357 kts 269°
2026-05-09 01:50 42.34007 -71.93328 23543 ft 361 kts 269°
2026-05-09 01:50 42.33864 -71.96723 24096 ft 363 kts 269°
2026-05-09 01:51 42.33719 -72.00132 24673 ft 364 kts 269°
2026-05-09 01:51 42.33566 -72.03554 25242 ft 366 kts 269°
2026-05-09 01:51 42.33409 -72.07003 25814 ft 368 kts 269°
2026-05-09 01:51 42.33254 -72.10459 26389 ft 369 kts 269°
2026-05-09 01:52 42.33099 -72.13929 26971 ft 371 kts 269°
2026-05-09 01:52 42.32939 -72.17420 27545 ft 373 kts 269°
2026-05-09 01:52 42.32778 -72.20933 28136 ft 375 kts 269°
2026-05-09 01:52 42.32615 -72.24464 28716 ft 378 kts 269°
2026-05-09 01:53 42.32450 -72.28013 29247 ft 380 kts 269°
2026-05-09 01:53 42.32283 -72.31587 29834 ft 382 kts 269°
2026-05-09 01:53 42.32113 -72.35183 30326 ft 384 kts 269°
2026-05-09 01:53 42.31943 -72.38800 30714 ft 388 kts 269°
2026-05-09 01:54 42.31768 -72.42446 31238 ft 388 kts 268°
2026-05-09 01:54 42.31593 -72.46069 31915 ft 386 kts 268°
2026-05-09 01:54 42.31418 -72.49684 32498 ft 385 kts 268°
2026-05-09 01:54 42.31244 -72.53279 33086 ft 385 kts 268°
2026-05-09 01:55 42.31066 -72.56902 33697 ft 384 kts 267°
2026-05-09 01:55 42.30888 -72.60500 34251 ft 384 kts 267°
2026-05-09 01:55 42.30710 -72.64099 34705 ft 384 kts 267°
2026-05-09 01:55 42.30530 -72.67701 35137 ft 385 kts 267°
2026-05-09 01:56 42.30349 -72.71312 35602 ft 386 kts 267°
2026-05-09 01:56 42.30165 -72.74937 36070 ft 386 kts 267°
2026-05-09 01:56 42.29980 -72.78561 36547 ft 387 kts 267°
2026-05-09 01:56 42.29798 -72.82138 37010 ft 388 kts 267°
2026-05-09 01:57 42.29610 -72.85776 37511 ft 388 kts 267°
2026-05-09 01:57 42.29422 -72.89399 37998 ft 386 kts 267°
2026-05-09 01:57 42.29228 -72.93122 37997 ft 398 kts 267°
2026-05-09 01:57 42.28978 -72.96835 37993 ft 409 kts 265°
2026-05-09 01:58 42.28291 -73.04643 38001 ft 428 kts 265°
2026-05-09 01:58 42.27594 -73.12745 37996 ft 440 kts 265°
2026-05-09 01:59 42.26866 -73.20973 37997 ft 442 kts 265°
2026-05-09 01:59 42.26140 -73.29204 37987 ft 442 kts 265°
2026-05-09 02:00 42.25404 -73.37428 37991 ft 441 kts 265°
2026-05-09 02:00 42.24665 -73.45644 37986 ft 441 kts 265°
2026-05-09 02:01 42.23921 -73.53847 37991 ft 440 kts 265°
2026-05-09 02:01 42.23171 -73.62044 37980 ft 440 kts 265°
2026-05-09 02:02 42.22417 -73.70231 37976 ft 440 kts 265°
2026-05-09 02:02 42.21655 -73.78418 37979 ft 440 kts 265°
2026-05-09 02:03 42.20890 -73.86598 37984 ft 440 kts 265°
2026-05-09 02:03 42.20118 -73.94772 37991 ft 439 kts 264°
2026-05-09 02:04 42.19341 -74.02941 37990 ft 439 kts 265°
2026-05-09 02:04 42.18558 -74.11105 38008 ft 439 kts 264°
2026-05-09 02:05 42.17770 -74.19261 38014 ft 438 kts 264°
2026-05-09 02:05 42.16977 -74.27413 38013 ft 438 kts 264°
2026-05-09 02:06 42.16180 -74.35541 38009 ft 437 kts 264°
2026-05-09 02:07 42.14974 -74.47719 38013 ft 437 kts 264°
2026-05-09 02:07 42.14163 -74.55839 38011 ft 438 kts 264°
2026-05-09 02:08 42.13347 -74.63955 38015 ft 437 kts 264°
2026-05-09 02:08 42.12525 -74.72060 38006 ft 437 kts 264°
2026-05-09 02:09 42.11698 -74.80158 38008 ft 437 kts 264°
2026-05-09 02:09 42.10865 -74.88268 38008 ft 437 kts 264°
2026-05-09 02:10 42.10026 -74.96368 38001 ft 437 kts 264°
2026-05-09 02:10 42.09325 -75.03099 38005 ft 436 kts 264°
2026-05-09 02:11 42.08475 -75.11200 38006 ft 438 kts 264°
2026-05-09 02:11 42.07619 -75.19304 37999 ft 437 kts 264°
2026-05-09 02:12 42.06757 -75.27406 37997 ft 437 kts 264°
2026-05-09 02:12 42.06435 -75.35526 37994 ft 435 kts 273°
2026-05-09 02:13 42.06722 -75.43684 37998 ft 436 kts 272°
2026-05-09 02:13 42.06980 -75.51838 37986 ft 436 kts 272°
2026-05-09 02:14 42.07251 -75.59988 37944 ft 435 kts 272°
2026-05-09 02:14 42.07504 -75.68134 37943 ft 435 kts 272°
2026-05-09 02:15 42.07756 -75.76222 37942 ft 436 kts 272°
2026-05-09 02:15 42.08001 -75.84373 37943 ft 436 kts 272°
2026-05-09 02:16 42.08242 -75.92531 37946 ft 436 kts 272°
2026-05-09 02:16 42.08476 -76.00692 37951 ft 436 kts 272°
2026-05-09 02:17 42.08705 -76.08851 37949 ft 436 kts 272°
2026-05-09 02:17 42.08929 -76.17019 37946 ft 437 kts 272°
2026-05-09 02:18 42.09146 -76.25184 37945 ft 436 kts 272°
2026-05-09 02:18 42.09358 -76.33354 37937 ft 436 kts 272°
2026-05-09 02:19 42.09564 -76.41518 37934 ft 436 kts 272°
2026-05-09 02:19 42.09764 -76.49697 37928 ft 437 kts 272°
2026-05-09 02:20 42.09959 -76.57864 37930 ft 437 kts 272°
2026-05-09 02:20 42.10147 -76.66028 37934 ft 436 kts 272°
2026-05-09 02:21 42.10329 -76.74175 37940 ft 436 kts 272°
2026-05-09 02:21 42.10507 -76.82363 37943 ft 436 kts 272°
2026-05-09 02:22 42.10678 -76.90536 37951 ft 437 kts 272°
2026-05-09 02:22 42.10844 -76.98710 37943 ft 436 kts 272°
2026-05-09 02:23 42.11003 -77.06885 37944 ft 436 kts 272°
2026-05-09 02:23 42.11156 -77.15004 37942 ft 436 kts 271°
2026-05-09 02:24 42.11304 -77.23167 37939 ft 436 kts 271°
2026-05-09 02:24 42.11446 -77.31338 37941 ft 436 kts 271°
2026-05-09 02:25 42.11582 -77.39494 37941 ft 435 kts 271°
2026-05-09 02:25 42.11712 -77.47643 37945 ft 435 kts 271°
2026-05-09 02:26 42.11837 -77.55778 37944 ft 434 kts 271°
2026-05-09 02:26 42.11955 -77.63903 37953 ft 434 kts 271°
2026-05-09 02:27 42.12067 -77.72022 37953 ft 433 kts 271°
2026-05-09 02:27 42.12175 -77.80138 37953 ft 433 kts 271°
2026-05-09 02:28 42.12275 -77.88243 37959 ft 433 kts 271°
2026-05-09 02:28 42.12371 -77.96340 37961 ft 432 kts 271°
2026-05-09 02:29 42.12459 -78.04437 37953 ft 432 kts 271°
2026-05-09 02:29 42.12544 -78.12507 37953 ft 432 kts 271°
2026-05-09 02:30 42.12622 -78.20618 37951 ft 432 kts 271°
2026-05-09 02:30 42.12694 -78.28709 37936 ft 432 kts 271°
2026-05-09 02:31 42.12761 -78.36795 37938 ft 431 kts 271°
2026-05-09 02:31 42.12821 -78.44870 37942 ft 431 kts 271°
2026-05-09 02:32 42.12877 -78.52929 37936 ft 430 kts 271°
2026-05-09 02:32 42.12926 -78.60984 37939 ft 430 kts 271°
2026-05-09 02:33 42.12970 -78.69029 37938 ft 430 kts 270°
2026-05-09 02:33 42.12682 -78.77064 37917 ft 430 kts 263°
2026-05-09 02:34 42.11213 -78.84885 37917 ft 433 kts 254°
2026-05-09 02:34 42.09221 -78.92545 37934 ft 434 kts 254°
2026-05-09 02:35 42.07250 -79.00161 37936 ft 435 kts 254°
2026-05-09 02:35 42.05241 -79.07834 37943 ft 434 kts 254°
2026-05-09 02:36 42.03240 -79.15507 37941 ft 434 kts 254°
2026-05-09 02:36 42.01231 -79.23150 37933 ft 434 kts 254°
2026-05-09 02:37 41.99220 -79.30795 37931 ft 433 kts 254°
2026-05-09 02:37 41.97205 -79.38422 37936 ft 433 kts 254°
2026-05-09 02:38 41.95188 -79.46041 37928 ft 433 kts 254°
2026-05-09 02:38 41.93171 -79.53625 37680 ft 421 kts 254°
2026-05-09 02:38 41.92204 -79.57234 37116 ft 401 kts 254°
2026-05-09 02:39 41.91284 -79.60681 36590 ft 383 kts 254°
2026-05-09 02:39 41.90405 -79.63982 36102 ft 367 kts 255°
2026-05-09 02:39 41.89556 -79.67164 35615 ft 358 kts 255°
2026-05-09 02:39 41.88719 -79.70295 35158 ft 356 kts 255°
2026-05-09 02:40 41.87876 -79.73447 34686 ft 360 kts 255°
2026-05-09 02:40 41.87027 -79.76612 34215 ft 361 kts 255°
2026-05-09 02:40 41.86174 -79.79778 33704 ft 360 kts 255°
2026-05-09 02:40 41.85323 -79.82937 33228 ft 360 kts 255°
2026-05-09 02:41 41.84469 -79.86112 32796 ft 363 kts 255°
2026-05-09 02:41 41.83608 -79.89308 32374 ft 366 kts 255°
2026-05-09 02:41 41.82737 -79.92527 31971 ft 368 kts 255°
2026-05-09 02:41 41.81862 -79.95758 31581 ft 370 kts 255°
2026-05-09 02:42 41.80982 -79.99006 31197 ft 371 kts 255°
2026-05-09 02:42 41.80100 -80.02262 30826 ft 372 kts 255°
2026-05-09 02:42 41.79231 -80.05440 30449 ft 354 kts 255°
2026-05-09 02:42 41.78406 -80.08469 30054 ft 341 kts 255°
2026-05-09 02:43 41.77615 -80.11435 29596 ft 336 kts 255°
2026-05-09 02:43 41.76829 -80.14386 29121 ft 338 kts 255°
2026-05-09 02:43 41.76027 -80.17352 28699 ft 339 kts 255°
2026-05-09 02:43 41.75221 -80.20320 28284 ft 339 kts 254°
2026-05-09 02:44 41.74418 -80.23289 27887 ft 339 kts 254°
2026-05-09 02:44 41.73618 -80.26251 27489 ft 339 kts 254°
2026-05-09 02:44 41.72815 -80.29210 27106 ft 338 kts 254°
2026-05-09 02:44 41.72011 -80.32171 26727 ft 338 kts 254°
2026-05-09 02:45 41.71207 -80.35128 26362 ft 334 kts 254°
2026-05-09 02:45 41.70409 -80.38065 25883 ft 342 kts 254°
2026-05-09 02:45 41.69617 -80.40967 25209 ft 329 kts 253°
2026-05-09 02:45 41.68828 -80.43863 24535 ft 333 kts 253°
2026-05-09 02:46 41.68035 -80.46768 23880 ft 333 kts 253°
2026-05-09 02:46 41.67240 -80.49674 23182 ft 333 kts 253°
2026-05-09 02:46 41.66446 -80.52576 22186 ft 333 kts 253°
2026-05-09 02:46 41.65650 -80.55491 21101 ft 339 kts 253°
2026-05-09 02:47 41.64853 -80.58405 20062 ft 329 kts 252°
2026-05-09 02:47 41.64070 -80.61255 19046 ft 324 kts 252°
2026-05-09 02:47 41.63298 -80.64071 18057 ft 323 kts 252°
2026-05-09 02:47 41.62538 -80.66845 16973 ft 320 kts 252°
2026-05-09 02:48 41.61765 -80.69653 15905 ft 316 kts 251°
2026-05-09 02:48 41.61005 -80.72383 14888 ft 312 kts 251°
2026-05-09 02:48 41.60253 -80.75077 14110 ft 304 kts 251°
2026-05-09 02:48 41.59512 -80.77741 13380 ft 306 kts 251°
2026-05-09 02:49 41.58775 -80.80387 12690 ft 304 kts 251°
2026-05-09 02:49 41.58037 -80.83031 11998 ft 302 kts 251°
2026-05-09 02:49 41.57306 -80.85650 11312 ft 300 kts 251°
2026-05-09 02:49 41.56590 -80.88209 10632 ft 284 kts 250°
2026-05-09 02:50 41.55931 -80.90562 10012 ft 265 kts 250°
2026-05-09 02:50 41.55323 -80.92861 9354 ft 254 kts 256°
2026-05-09 02:50 41.55477 -80.95168 8747 ft 254 kts 289°
2026-05-09 02:50 41.56632 -80.96938 8144 ft 266 kts 322°
2026-05-09 02:51 41.58399 -80.97531 7576 ft 266 kts 356°
2026-05-09 02:51 41.60177 -80.96816 7090 ft 261 kts 18°
2026-05-09 02:51 41.61748 -80.95777 6695 ft 252 kts 21°
2026-05-09 02:51 41.63309 -80.94808 6231 ft 242 kts 10°
2026-05-09 02:52 41.64893 -80.94901 5622 ft 220 kts 330°
2026-05-09 02:52 41.65922 -80.96238 5034 ft 198 kts 288°
2026-05-09 02:52 41.66151 -80.97970 4601 ft 189 kts 271°
2026-05-09 02:52 41.66234 -80.99728 4200 ft 190 kts 271°
2026-05-09 02:53 41.66315 -81.01505 3787 ft 192 kts 271°
2026-05-09 02:53 41.66396 -81.03299 3355 ft 194 kts 271°
2026-05-09 02:53 41.66480 -81.05126 2917 ft 199 kts 270°
2026-05-09 02:53 41.66585 -81.06983 2504 ft 199 kts 271°
2026-05-09 02:54 41.66707 -81.08757 2500 ft 187 kts 271°
2026-05-09 02:54 41.66835 -81.10489 2506 ft 186 kts 271°
2026-05-09 02:54 41.66920 -81.11647 2511 ft 187 kts 271°
2026-05-09 02:54 41.67048 -81.13406 2524 ft 193 kts 271°
2026-05-09 02:55 41.67179 -81.15177 2506 ft 193 kts 271°
2026-05-09 02:55 41.67309 -81.16974 2503 ft 195 kts 271°
2026-05-09 02:55 41.67281 -81.18775 2501 ft 194 kts 262°
2026-05-09 02:55 41.67137 -81.20559 2510 ft 191 kts 261°
2026-05-09 02:56 41.66996 -81.22323 2518 ft 191 kts 261°
2026-05-09 02:56 41.66869 -81.24099 2512 ft 192 kts 261°
2026-05-09 02:56 41.66744 -81.25878 2513 ft 194 kts 262°
2026-05-09 02:56 41.66602 -81.27688 2515 ft 191 kts 261°
2026-05-09 02:57 41.66452 -81.29431 2517 ft 191 kts 261°
2026-05-09 02:57 41.66221 -81.31173 2513 ft 189 kts 256°
2026-05-09 02:57 41.65950 -81.32927 2506 ft 193 kts 256°
2026-05-09 02:57 41.65680 -81.34665 2510 ft 192 kts 256°
2026-05-09 02:58 41.65406 -81.36404 2518 ft 190 kts 256°
2026-05-09 02:58 41.65141 -81.38143 2513 ft 190 kts 257°
2026-05-09 02:58 41.64872 -81.39889 2518 ft 191 kts 256°
2026-05-09 02:58 41.64595 -81.41628 2503 ft 190 kts 257°
2026-05-09 02:59 41.63964 -81.43163 2451 ft 188 kts 232°
2026-05-09 02:59 41.63047 -81.44453 2501 ft 193 kts 232°
2026-05-09 02:59 41.62309 -81.45919 2495 ft 187 kts 239°
2026-05-09 02:59 41.61668 -81.47293 2480 ft 161 kts 239°
2026-05-09 03:00 41.61111 -81.48497 2482 ft 147 kts 240°
2026-05-09 03:00 41.60582 -81.49646 2491 ft 145 kts 239°
2026-05-09 03:00 41.60037 -81.50802 2493 ft 147 kts 239°
2026-05-09 03:00 41.59497 -81.51968 2496 ft 150 kts 239°
2026-05-09 03:01 41.58942 -81.53144 2495 ft 149 kts 240°
2026-05-09 03:01 41.58399 -81.54315 2487 ft 148 kts 240°
2026-05-09 03:01 41.57850 -81.55484 2485 ft 149 kts 240°
2026-05-09 03:01 41.57333 -81.56581 2476 ft 125 kts 239°
2026-05-09 03:02 41.56912 -81.57487 2316 ft 107 kts 240°
2026-05-09 03:02 41.56527 -81.58304 2185 ft 103 kts 239°
2026-05-09 03:02 41.56138 -81.59122 2044 ft 106 kts 239°
2026-05-09 03:02 41.55745 -81.59960 1889 ft 108 kts 241°
2026-05-09 03:03 41.55358 -81.60815 1719 ft 105 kts 237°
2026-05-09 03:03 41.54973 -81.61642 1611 ft 107 kts 236°
2026-05-09 03:03 41.54562 -81.62498 1534 ft 111 kts 236°
2026-05-09 03:03 41.54146 -81.63395 1359 ft 118 kts 236°
2026-05-09 03:04 41.53704 -81.64342 1155 ft 121 kts 234°
2026-05-09 03:04 41.53252 -81.65296 1013 ft 124 kts 234°
2026-05-09 03:04 41.52788 -81.66271 847 ft 124 kts 235°
2026-05-09 03:04 41.52342 -81.67230 650 ft 117 kts 234°
2026-05-09 03:05 41.51947 -81.68064 590 ft 87 kts 238°
2026-05-09 03:05 41.51701 -81.68579 589 ft 41 kts 231°
2026-05-09 03:05 41.51530 -81.68734 589 ft 18 kts 206°
2026-05-09 03:05 41.51476 -81.68772 589 ft 3 kts 206°
2026-05-09 03:06 41.51444 -81.68775 589 ft 5 kts 175°
2026-05-09 03:06 41.51395 -81.68749 590 ft 7 kts 149°
2026-05-09 03:06 41.51381 -81.68737 590 ft 0 kts 150°
2026-05-09 03:06 41.51380 -81.68737 590 ft 0 kts 159°
2026-05-09 03:07 41.51336 -81.68762 590 ft 16 kts 216°
2026-05-09 03:07 41.51282 -81.68860 590 ft 9 kts 208°
2026-05-09 03:07 41.51242 -81.68858 590 ft 3 kts 189°
2026-05-09 03:07 41.51239 -81.68862 590 ft 0 kts 225°